CDT,Max TemperatureF,Mean TemperatureF,Min TemperatureF,Max Dew PointF,MeanDew PointF,Min DewpointF,Max Humidity, Mean Humidity, Min Humidity, Max Sea Level PressureIn, Mean Sea Level PressureIn, Min Sea Level PressureIn, Max VisibilityMiles, Mean VisibilityMiles, Min VisibilityMiles, Max Wind SpeedMPH, Mean Wind SpeedMPH, Max Gust SpeedMPH,PrecipitationIn, CloudCover, Events, WindDirDegrees
2012-10-1,69,56,44,55,45,32,100,63,30,30.20,30.13,30.03,10.0,10.0,10.0,26,12,40,0.00,2,,347
2012-10-2,78,55,32,45,38,30,100,59,28,30.14,29.99,29.86,10.0,10.0,10.0,17,8,24,0.00,0,,207
2012-10-3,89,68,46,50,43,37,93,48,17,30.15,29.85,29.76,10.0,9.9,5.0,29,10,43,0.00,1,,200
2012-10-4,55,46,37,39,32,28,81,58,36,30.36,30.29,30.16,10.0,10.0,10.0,26,17,34,0.00,2,,2
2012-10-5,39,36,33,37,34,30,100,90,70,30.36,30.32,30.22,10.0,9.2,0.8,14,8,,0.00,6,Snow,63
2012-10-6,37,34,32,37,34,32,100,99,93,30.37,30.34,30.30,10.0,6.9,0.8,14,5,17,0.00,8,Rain-Snow,62
2012-10-7,51,40,30,41,36,30,100,90,58,30.35,30.20,30.07,10.0,9.3,2.0,16,4,21,0.00,4,,216
2012-10-8,73,52,30,37,33,30,100,59,20,30.07,29.94,29.84,10.0,10.0,10.0,18,9,22,0.00,0,,225
2012-10-9,57,45,33,43,36,32,100,76,41,30.24,30.01,29.78,10.0,9.9,7.0,25,11,28,0.00,1,,339
2012-10-10,64,46,28,37,34,28,100,67,37,30.25,30.15,30.00,10.0,10.0,10.0,23,10,29,0.00,0,,209
2012-10-11,64,52,39,46,41,32,100,69,39,30.29,30.07,29.93,10.0,9.6,5.0,22,12,28,0.00,0,,23
2012-10-12,53,43,33,46,35,30,87,75,58,30.30,30.16,29.92,10.0,10.0,10.0,18,10,23,0.00,4,Rain,105
2012-10-13,73,58,44,54,48,39,100,77,29,29.90,29.79,29.68,10.0,8.8,0.5,30,13,34,0.00,3,Fog-Rain,263
2012-10-14,71,58,44,46,42,37,87,59,31,30.18,30.09,29.89,10.0,10.0,10.0,22,14,29,0.00,1,,301
2012-10-15,80,61,42,45,41,37,93,57,24,30.11,29.95,29.80,10.0,10.0,10.0,13,8,21,0.00,0,,223
2012-10-16,78,61,44,45,41,37,81,50,26,29.82,29.69,29.50,10.0,10.0,10.0,16,8,21,0.00,0,,244
2012-10-17,62,48,35,46,32,21,76,47,25,29.93,29.75,29.50,10.0,10.0,10.0,37,18,47,0.00,2,,319
2012-10-18,59,47,35,27,22,16,65,39,22,29.99,29.96,29.92,10.0,7.3,2.0,46,22,61,0.00,3,,304
2012-10-19,69,52,35,32,25,16,57,39,24,30.01,29.93,29.81,10.0,9.9,7.0,21,12,28,0.00,0,,285
2012-10-20,84,62,41,36,33,30,70,40,16,29.80,29.74,29.67,10.0,10.0,10.0,16,8,22,0.00,0,,236
2012-10-21,77,59,41,41,37,32,81,50,26,29.82,29.73,29.67,10.0,10.0,10.0,16,11,20,0.00,0,,317
2012-10-22,62,50,39,52,46,37,100,85,67,29.93,29.86,29.79,10.0,7.7,0.5,15,10,16,0.00,3,Fog,17
2012-10-23,78,62,46,54,49,46,100,78,34,29.79,29.72,29.68,10.0,6.4,0.2,15,8,16,0.00,3,Fog-Rain,125
2012-10-24,50,46,42,50,47,43,100,99,94,29.87,29.80,29.71,10.0,3.6,0.2,24,12,31,0.00,8,Rain,18
2012-10-25,44,38,30,41,32,28,100,87,57,30.35,30.15,29.86,10.0,9.4,2.0,26,18,34,0.00,4,Rain-Snow,351
2012-10-26,35,30,24,30,28,25,100,93,81,30.52,30.42,30.35,10.0,10.0,10.0,9,5,,0.00,4,,48
2012-10-27,50,36,23,32,28,23,100,79,47,30.34,30.21,30.10,10.0,10.0,10.0,21,8,25,0.00,1,,201
2012-10-28,62,46,30,34,31,27,93,62,31,30.18,30.11,30.02,10.0,10.0,10.0,20,8,29,0.00,5,,202
2012-10-29,77,55,33,37,34,28,87,52,24,30.11,30.06,30.01,10.0,9.5,0.8,13,7,16,0.00,1,,246
2012-10-30,73,57,41,43,37,32,76,50,25,30.07,30.03,29.99,10.0,10.0,10.0,21,11,24,0.00,0,,316
2012-10-31,77,56,35,39,35,32,87,52,22,30.09,30.06,30.01,10.0,10.0,10.0,13,8,20,0.00,0,,290